Location: Chmeln�
(49.6483°N, 14.9871°E)
Time: 05:21:25
(UTC+00:00)

ERS-1 Rocket - Pass Details

Date: 18 September 2020
Orbit: 753 x 757 km, 98.5° (Epoch: 27 October)

Event Time Altitude Azimuth Distance (km) Brightness Sun altitude
Exits shadow 19:17:23 24° 60° (ENE) 1,531 4.3 -21.1°
Maximum altitude 19:17:23 24° 60° (ENE) 1,531 4.3 -21.1°
Drops below altitude 10° 19:21:22 10° 8° (N) 2,296 5.7 -21.7°
Sets 19:24:03 0° 355° (N) 3,227 6.7 -22.0°
